Clines Corner, NM

1:27 PM MDT on October 17, 2017 (GMT -0600)
Clines Corner

Weather History for KCQC - May, 2013

Change the Weather History Date:

Thursday, May 16, 2013

  Actual Average (KSAF) Record (KSAF)
Temperature  
Mean Temperature 62 °F -  
Max Temperature 80 °F 65 °F 86 °F (1978)
Min Temperature 46 °F 38 °F 33 °F (1998)
Degree Days  
Heating Degree Days 2    
Growing Degree Days 12 (Base 50)    
Moisture  
Dew Point 17 °F    
Average Humidity 22    
Maximum Humidity 50    
Minimum Humidity 6    
Precipitation  
Precipitation 0.00 in - - ()
Sea Level Pressure  
Sea Level Pressure 29.81 in    
Wind  
Wind Speed 12 mph (WNW)    
Max Wind Speed 24 mph    
Max Gust Speed 33 mph    
Visibility 10 miles    
Events      
Averages and records for this station are not official NWS values.
T = Trace of Precipitation, MM = Missing Value Source: NWS Daily Summary

Daily Weather History Graph

Daily Weather History Graph

Search for Another Location

Airport or City:

Trip Planner

Search our weather history database for the weather conditions in past years. The results will help you decide how hot, cold, wet, or windy it might be!

Date:

Astronomy

May. 16, 2013 Rise Set
Actual Time 5:58 AM MDT 8:00 PM MDT
Civil Twilight 5:29 AM MDT 8:28 PM MDT
Nautical Twilight 4:55 AM MDT 9:02 PM MDT
Astronomical Twilight 4:18 AM MDT 9:39 PM MDT
Moon 11:29 AM MDT (5/16) 12:26 AM MDT (5/16)
Length of Visible Light 14h 58m
Length of Day
14h 02m
Waxing Crescent, 36% of the Moon is Illuminated
May 16
Waxing Crescent
May 17
First Quarter
May 24
Full
May 31
Last Quarter
Jun 8
New

Hourly Weather History & Observations

Time (MDT) Temp. Windchill Dew Point Humidity Pressure Visibility Wind Dir Wind Speed Gust Speed Precip Events Conditions
12:53 AM 53.1 °F - 33.1 °F 47% 29.83 in 10.0 mi WNW 8.1 mph - N/A   Clear
1:53 AM 51.1 °F - 33.1 °F 50% 29.84 in 10.0 mi West 9.2 mph - N/A   Clear
2:53 AM 50.0 °F - 32.0 °F 50% 29.84 in 10.0 mi WNW 12.7 mph - N/A   Clear
3:53 AM 50.0 °F - 30.9 °F 48% 29.89 in 10.0 mi NW 8.1 mph - N/A   Clear
4:53 AM 46.0 °F 41.4 °F 26.1 °F 46% 29.90 in 10.0 mi WNW 9.2 mph - N/A   Clear
5:53 AM 46.9 °F - 24.1 °F 41% 29.89 in 10.0 mi WSW 4.6 mph - N/A   Clear
6:53 AM 51.1 °F - 24.1 °F 35% 29.88 in 10.0 mi WNW 9.2 mph - N/A   Clear
7:53 AM 60.1 °F - 23.0 °F 24% 29.86 in 10.0 mi WNW 8.1 mph - N/A   Clear
8:53 AM 64.0 °F - 21.0 °F 19% 29.87 in 10.0 mi WNW 15.0 mph 20.7 mph N/A   Clear
9:53 AM 68.0 °F - 18.0 °F 15% 29.86 in 10.0 mi WNW 17.3 mph 31.1 mph N/A   Clear
10:53 AM 72.0 °F - 17.1 °F 12% 29.84 in 10.0 mi WNW 13.8 mph 31.1 mph N/A   Clear
1:53 PM 78.1 °F - 16.0 °F 10% 29.80 in 10.0 mi WNW 24.2 mph 32.2 mph N/A   Clear
2:53 PM 79.0 °F - 15.1 °F 9% 29.77 in 10.0 mi West 20.7 mph 32.2 mph N/A   Clear
3:53 PM 79.0 °F - 9.0 °F 7% 29.75 in 10.0 mi West 20.7 mph 32.2 mph N/A   Clear
4:53 PM 79.0 °F - 8.1 °F 7% 29.75 in 10.0 mi West 23.0 mph 33.4 mph N/A   Clear
5:53 PM 78.1 °F - 7.0 °F 7% 29.74 in 10.0 mi West 21.9 mph 32.2 mph N/A   Clear
6:53 PM 75.9 °F - 5.0 °F 6% 29.74 in 10.0 mi WNW 20.7 mph 28.8 mph N/A   Clear
7:53 PM 71.1 °F - 5.0 °F 8% 29.73 in 10.0 mi West 16.1 mph - N/A   Clear
8:53 PM 63.0 °F - 5.0 °F 10% 29.75 in 10.0 mi West 13.8 mph - N/A   Clear
9:53 PM 57.0 °F - 5.0 °F 12% 29.78 in 10.0 mi WSW 10.4 mph - N/A   Clear
10:53 PM 55.9 °F - 5.0 °F 13% 29.78 in 10.0 mi West 11.5 mph - N/A   Clear
11:53 PM 55.9 °F - 5.0 °F 13% 29.78 in 10.0 mi West 15.0 mph - N/A   Clear